Weather reports worldwide

Advertisment
Portland Intl OR, United States of America (72698): temperature & dewpoint: 19.02.2020 02:00:00 - 25.02.2020 02:00:00 (PST)Portland Intl OR, United States of America (72698): wind speed & gusts: 19.02.2020 02:00:00 - 25.02.2020 02:00:00 (PST)Portland Intl OR, United States of America (72698): wind direction: 19.02.2020 02:00:00 - 25.02.2020 02:00:00 (PST)Portland Intl OR, United States of America (72698): reduced air pressure: 19.02.2020 02:00:00 - 25.02.2020 02:00:00 (PST)Portland Intl OR, United States of America (72698): visibility: 19.02.2020 02:00:00 - 25.02.2020 02:00:00 (PST)Portland Intl OR, United States of America (72698): precipitation: 19.02.2020 02:00:00 - 25.02.2020 02:00:00 (PST)
Date & Time tt [°C] td [°C] ff [km/h] ff [kn] fx [km/h] fx [kn] dd ppp [hPa] vv [km] rr [mm]
25.02.2020 02:00:00 1,1 -0,6 0 0 - - N 1036,6 16 -
25.02.2020 01:00:00 1,7 1,1 5 3 - - S 1036,2 16 -
25.02.2020 00:00:00 3,3 2,2 0 0 - - N 1036,5 16 -
24.02.2020 23:00:00 3,3 1,1 8 4 - - WNW 1036,6 16 -
24.02.2020 22:00:00 5,6 2,2 5 3 - - NNW 1036,6 16 -
24.02.2020 21:00:00 6,7 2,2 15 8 - - N 1036,0 16 -
24.02.2020 20:00:00 7,2 2,8 9 5 - - E 1036,8 16 -
24.02.2020 19:00:00 8,3 2,2 5 3 - - E 1036,8 16 0,0
24.02.2020 18:00:00 8,9 2,2 5 3 - - WNW 1036,9 16 -
24.02.2020 17:00:00 8,9 1,7 9 5 - - E 1036,7 16 -
24.02.2020 16:00:00 9,4 1,1 0 0 - - N 1036,8 16 0,0
24.02.2020 15:00:00 8,9 0,6 5 3 - - N 1036,7 16 -
24.02.2020 14:00:00 8,9 0,6 5 3 - - WSW 1036,6 16 -
24.02.2020 13:00:00 9,4 1,1 9 5 - - NW 1037,0 16 -
24.02.2020 12:00:00 7,8 1,7 8 4 - - SW 1037,4 16 -
24.02.2020 11:00:00 7,2 1,7 9 5 - - E 1037,5 16 -
24.02.2020 10:00:00 7,2 2,2 8 4 - - SSW 1037,3 16 -
24.02.2020 09:00:00 6,1 2,2 0 0 - - N 1037,2 16 0,0
24.02.2020 08:00:00 5,0 2,2 0 0 - - N 1036,8 16 -
24.02.2020 07:00:00 4,4 1,7 0 0 - - N 1036,0 16 -
24.02.2020 06:00:00 4,4 1,7 0 0 - - N 1036,2 16 -
24.02.2020 05:00:00 5,6 1,1 0 0 - - N 1036,0 16 -
24.02.2020 04:00:00 5,0 1,7 0 0 - - N 1035,8 16 0,0
24.02.2020 03:00:00 5,6 1,7 0 0 - - N 1035,7 16 -
24.02.2020 02:00:00 5,0 1,7 0 0 - - N 1035,6 16 -
24.02.2020 01:00:00 5,6 1,7 0 0 - - N 1035,2 16 -
24.02.2020 00:00:00 5,6 1,7 16 9 - - SW 1033,9 16 -
23.02.2020 23:00:00 6,7 1,1 16 9 - - WSW 1033,8 16 -
23.02.2020 22:00:00 6,7 1,1 11 6 - - W 1032,9 16 -
23.02.2020 21:00:00 6,7 1,7 15 8 - - WSW 1032,0 16 -
23.02.2020 20:00:00 6,7 2,2 13 7 - - WSW 1031,0 16 0,0
23.02.2020 19:00:00 7,8 1,1 16 9 - - SW 1029,9 16 0,0
23.02.2020 18:00:00 8,3 0,6 21 11 - - WSW 1028,8 16 -
23.02.2020 17:00:00 9,4 1,1 18 10 - - WSW 1027,7 16 -
23.02.2020 16:00:00 8,9 1,1 13 7 52 28 W 1026,3 16 -
23.02.2020 15:00:00 8,9 2,8 28 15 55 30 W 1024,9 16 0,0
23.02.2020 14:00:00 10,0 1,7 37 20 57 31 W 1023,0 16 -
23.02.2020 13:00:00 10,0 1,1 37 20 55 30 WNW 1022,3 16 -
23.02.2020 12:00:00 11,1 0,6 35 19 59 32 W 1021,1 16 -
23.02.2020 11:00:00 10,0 1,7 46 25 67 36 W 1020,6 16 -
23.02.2020 10:00:00 8,9 2,8 34 18 50 27 W 1019,0 16 0,3
23.02.2020 09:00:00 9,4 6,1 26 14 72 39 WSW 1017,5 16 1,5
23.02.2020 08:00:00 9,4 5,6 42 23 61 33 SSW 1014,6 16 0,0
23.02.2020 07:00:00 8,9 5,6 37 20 48 26 S 1015,2 16 0,0
23.02.2020 06:00:00 8,9 5,0 16 9 - - S 1016,7 16 0,0
23.02.2020 05:00:00 8,3 5,0 18 10 - - SSE 1017,4 16 0,0
23.02.2020 04:00:00 7,8 5,0 24 13 - - S 1018,0 16 0,3
23.02.2020 03:00:00 6,1 3,3 15 8 - - ESE 1018,6 16 -
23.02.2020 02:00:00 6,1 3,3 15 8 - - ESE 1018,8 16 -
23.02.2020 01:00:00 6,7 3,9 8 4 - - ESE 1019,1 16 -
23.02.2020 00:00:00 6,7 3,9 5 3 - - E 1019,7 16 -
22.02.2020 23:00:00 6,1 3,9 5 3 - - ENE 1019,6 16 -
22.02.2020 22:00:00 7,2 3,9 0 0 - - N 1019,0 16 0,0
22.02.2020 21:00:00 8,3 4,4 13 7 - - WNW 1019,1 16 -
22.02.2020 20:00:00 7,8 3,9 8 4 - - WNW 1019,8 16 -
22.02.2020 19:00:00 8,9 3,9 5 3 - - WNW 1019,9 16 -
22.02.2020 18:00:00 10,0 3,9 8 4 - - NNW 1019,6 16 -
22.02.2020 17:00:00 11,7 3,9 8 4 - - NNE 1019,7 16 -
22.02.2020 16:00:00 12,8 3,3 5 3 - - NE 1020,1 16 0,0
22.02.2020 15:00:00 13,3 3,3 8 4 - - - 1020,9 16 -
22.02.2020 14:00:00 12,2 1,7 5 3 - - - 1021,5 16 -
22.02.2020 13:00:00 11,1 -0,6 0 0 - - N 1022,3 16 -
22.02.2020 12:00:00 9,4 1,1 8 4 - - NNE 1023,4 16 -
22.02.2020 11:00:00 7,2 2,8 8 4 - - E 1023,8 16 -
22.02.2020 10:00:00 5,0 2,2 8 4 - - ENE 1024,1 16 0,0
22.02.2020 09:00:00 3,3 1,7 8 4 - - ESE 1023,8 16 -
22.02.2020 08:00:00 1,7 0,6 5 3 - - E 1023,4 16 -
22.02.2020 07:00:00 0,6 -0,6 5 3 - - E 1022,8 16 -
22.02.2020 06:00:00 1,1 0,0 5 3 - - E 1022,8 16 -
22.02.2020 05:00:00 1,1 0,0 9 5 - - ESE 1022,7 13 -
22.02.2020 04:00:00 2,8 1,1 0 0 - - N 1022,5 16 0,0
22.02.2020 03:00:00 3,3 2,2 0 0 - - N 1022,7 16 -
22.02.2020 02:00:00 2,8 1,1 11 6 - - W 1022,6 16 -
22.02.2020 01:00:00 3,9 2,2 8 4 - - WNW 1022,2 16 -
22.02.2020 00:00:00 4,4 1,7 9 5 - - W 1021,9 16 -
21.02.2020 23:00:00 5,0 1,7 8 4 - - W 1022,1 16 -
21.02.2020 22:00:00 6,7 1,7 11 6 - - WNW 1022,0 16 0,0
21.02.2020 21:00:00 7,8 2,2 5 3 - - NW 1021,7 16 -
21.02.2020 20:00:00 8,3 1,1 5 3 - - WNW 1021,2 16 -
21.02.2020 19:00:00 9,4 1,1 5 3 - - WNW 1021,0 16 -
21.02.2020 18:00:00 11,1 0,0 8 4 - - W 1020,4 16 -
21.02.2020 17:00:00 13,9 0,6 5 3 - - NW 1020,5 16 -
21.02.2020 16:00:00 14,4 -1,1 5 3 - - N 1020,8 16 0,0
21.02.2020 15:00:00 13,9 -1,1 5 3 - - NE 1021,1 16 -
21.02.2020 14:00:00 12,2 -0,6 5 3 - - S 1021,8 16 -
21.02.2020 13:00:00 10,6 -1,1 5 3 - - WSW 1022,6 16 -
21.02.2020 12:00:00 9,4 -1,1 0 0 - - N 1023,7 16 -
21.02.2020 11:00:00 7,8 -1,1 0 0 - - N 1024,0 16 -
21.02.2020 10:00:00 5,6 -1,7 5 3 - - NW 1024,4 16 0,0
21.02.2020 09:00:00 3,3 0,0 5 3 - - WNW 1024,7 16 -
21.02.2020 08:00:00 1,1 -1,7 0 0 - - N 1024,5 16 -
21.02.2020 07:00:00 -0,6 -2,8 0 0 - - N 1024,3 16 -
21.02.2020 06:00:00 0,0 -2,2 0 0 - - N 1024,5 16 -
21.02.2020 05:00:00 0,0 -2,2 5 3 - - WNW 1024,4 16 -
21.02.2020 04:00:00 1,7 -2,2 0 0 - - N 1024,0 16 0,0
21.02.2020 03:00:00 3,3 -1,7 5 3 - - NNW 1024,3 16 -
21.02.2020 02:00:00 0,6 -2,2 5 3 - - NW 1024,3 16 -
21.02.2020 01:00:00 2,8 -1,1 8 4 - - E 1024,5 16 -
21.02.2020 00:00:00 2,8 -1,7 5 3 - - NW 1024,7 16 -
20.02.2020 23:00:00 5,0 -0,6 0 0 - - N 1024,4 16 -
20.02.2020 22:00:00 5,6 -2,2 0 0 - - N 1024,4 16 0,0
20.02.2020 21:00:00 5,6 -2,2 8 4 - - ENE 1024,1 16 -
20.02.2020 20:00:00 6,7 -2,8 11 6 - - E 1023,6 16 -
20.02.2020 19:00:00 8,3 -2,8 18 10 - - ESE 1023,5 16 -
20.02.2020 18:00:00 8,9 -2,8 16 9 - - ESE 1023,3 16 -
20.02.2020 17:00:00 10,6 -2,8 21 11 - - ESE 1023,0 16 -
20.02.2020 16:00:00 11,7 -2,2 21 11 - - SE 1023,2 16 0,0
20.02.2020 15:00:00 11,1 -2,2 21 11 - - ESE 1023,3 16 -
20.02.2020 14:00:00 11,7 -2,2 22 12 - - SE 1023,5 16 -
20.02.2020 13:00:00 12,2 -2,8 22 12 - - ESE 1023,9 16 -
20.02.2020 12:00:00 11,1 -2,8 22 12 - - SE 1024,5 16 -
20.02.2020 11:00:00 10,0 -2,2 21 11 - - ESE 1024,4 16 -
20.02.2020 10:00:00 8,9 -2,8 16 9 - - SE 1024,4 16 0,0
20.02.2020 09:00:00 7,2 -3,3 18 10 - - ESE 1023,9 16 -
20.02.2020 08:00:00 2,8 -1,7 0 0 - - N 1023,8 16 -
20.02.2020 07:00:00 2,8 -2,8 8 4 - - - 1023,1 16 -
20.02.2020 06:00:00 1,7 -2,8 5 3 - - W 1023,5 16 -
20.02.2020 05:00:00 2,8 -1,1 9 5 - - NW 1023,2 16 -
20.02.2020 04:00:00 5,0 -4,4 5 3 - - ESE 1023,0 16 0,0
20.02.2020 03:00:00 6,1 -4,4 16 9 - - E 1023,4 16 -
20.02.2020 02:00:00 6,7 -5,0 22 12 - - E 1023,4 16 -
20.02.2020 01:00:00 6,7 -5,0 18 10 - - E 1023,5 16 -
20.02.2020 00:00:00 7,2 -5,0 21 11 - - ESE 1023,4 16 -
19.02.2020 23:00:00 7,8 -5,6 26 14 - - E 1023,2 16 -
19.02.2020 22:00:00 7,8 -5,6 28 15 - - E 1023,3 16 0,0
19.02.2020 21:00:00 8,3 -5,6 31 17 - - E 1023,1 16 -
19.02.2020 20:00:00 8,3 -5,6 28 15 - - E 1023,0 16 -
19.02.2020 19:00:00 8,9 -5,0 29 16 - - E 1022,9 16 -
19.02.2020 18:00:00 9,4 -5,0 28 15 - - E 1022,4 16 -
19.02.2020 17:00:00 11,1 -4,4 34 18 - - E 1022,5 16 -
19.02.2020 16:00:00 12,2 -3,3 29 16 50 27 E 1022,7 16 0,0
19.02.2020 15:00:00 12,2 -3,9 31 17 - - E 1023,1 16 -
19.02.2020 14:00:00 12,8 -2,2 26 14 - - E 1023,4 16 -
19.02.2020 13:00:00 11,7 -2,8 26 14 - - E 1024,3 16 -
19.02.2020 12:00:00 11,1 -2,2 22 12 - - E 1025,3 16 -
19.02.2020 11:00:00 10,0 -2,2 29 16 - - ESE 1025,2 16 -
19.02.2020 10:00:00 8,3 -2,8 29 16 - - ESE 1025,5 16 0,0
19.02.2020 09:00:00 6,1 -2,8 22 12 - - ESE 1025,6 16 -
19.02.2020 08:00:00 3,9 -2,8 18 10 - - ESE 1025,6 16 -
19.02.2020 07:00:00 1,7 -3,3 11 6 - - ESE 1025,3 16 -
19.02.2020 06:00:00 2,2 -3,3 0 0 - - N 1025,5 16 -
19.02.2020 05:00:00 2,8 -3,9 11 6 - - SE 1025,5 16 -
19.02.2020 04:00:00 2,8 -3,9 11 6 - - ESE 1025,4 16 0,0
19.02.2020 03:00:00 3,9 -3,3 8 4 - - ESE 1025,5 16 -
19.02.2020 02:00:00 3,3 -3,3 11 6 - - ESE 1025,8 16 -

tt = temperature
td = dewpoint
ff = wind speed
fx = gusts
dd = wind direction
ppp = reduced air pressure
vv = visibility
rr = precipitation

Next stations